2017-077C (43036 NORAD) Tracking and Keplerian Element Data

This shows tracking and keplerian element data for the satellite.

Feedback or suggestion? Click here.




ElementValue
Catalog43036
Name2017-077C
Epoch Orbit408
Epoch Day364.45547172
Epoch Year2017
RAAN77.2225
Inclination97.5808
Eccentricity0.0013494
Argument of Perigee22.095
Mean Anonmoly338.0926
Mean Motion15.21000669
Decay Rate2.588E-05
L11 43036U 17077C 17364.45547172 .00002588 00000-0 11973-3 0 9991
L22 43036 97.5808 77.2225 0013494 22.0950 338.0926 15.21000669 4082

Live tracking and technical data element details for 2017-077C (NORAD 43036). 2017-077C can be tracked NOW for your location showing map with azimuth and elevation plus other details from your city location.

Track the satellite on the map from your city or location and see movement details for azimuth, elevation, latitude, longitude, range, height, and movement on the map or in text.







IsCatalogInMostPopularTable: catalog: 43036, numindb: 122
Update: records affected: 1



GetName: 43036 2017-077C

Hit Count: updated at: Wed, 14 Nov 2018 11:14:02 GMT